Regional Weather Roundup
Issued by NWS

Home | Current Version | Previous Version | Text Only | Print | Product List | Glossary Off
Versions: 1 2 3 4 5 6 7 8 9 10 11 12 13 14 15 16 17 18 19 20 21 22 23 24 25 26 27 28 29 30 31 32 33 34 35 36 37 38 39 40 41 42 43 44 45 46 47 48 49 50

204
ASUS43 KLOT 111408
RWRIL

ILLINOIS REGIONAL WEATHER ROUNDUP
NATIONAL WEATHER SERVICE CHICAGO/ROMEOVILLE IL
800 AM CST MON DEC 11 2017

NOTE: "FAIR" INDICATES FEW OR NO CLOUDS BELOW 12,000 FEET WITH NO
SIGNIFICANT WEATHER AND/OR OBSTRUCTIONS TO VISIBILITY.

* THESE STATIONS ARE NOT UNDER NWS QUALITY CONTROL. THEY ALSO MAY NOT
  REPORT WEATHER SUCH AS PRECIPITATION OR FOG.

ILZ001-002-007-009-015-016-024-111500-
NORTHWEST ILLINOIS

CITY           SKY/WX    TMP DP  RH WIND       PRES   REMARKS
MOLINE         MOCLDY    34  25  69 SE8       29.81F WCI  27
STERLING*      PTCLDY    30  24  78 SE5       29.87F WCI  25
SAVANNA*       CLOUDY    28  24  82 SE7       29.84F WCI  21
$$

ILZ003-004-008-010-011-017-018-111500-
NORTH CENTRAL ILLINOIS

CITY           SKY/WX    TMP DP  RH WIND       PRES   REMARKS
ROCKFORD       CLOUDY    27  22  81 S8        29.90F WCI  19
FREEPORT*      PTCLDY    26  22  84 SE12      29.86F WCI  16
ROCHELLE*      CLOUDY    26  22  85 S10       29.88F WCI  17
DE KALB*       CLOUDY    25  23  89 SE12      29.89F WCI  15
PERU*          CLOUDY    29  23  78 SE7       29.90F WCI  22
$$

ILZ005-006-012>014-019>023-111500-
NORTHEAST ILLINOIS

CITY           SKY/WX    TMP DP  RH WIND       PRES   REMARKS
CHICAGO-OHARE  CLOUDY    29  21  72 S9        29.92F WCI  20
CHICAGO-MIDWAY CLOUDY    29  22  75 S12       29.94F WCI  19
AURORA         CLOUDY    27  22  81 SE12      29.91F WCI  17
LANSING*       CLOUDY    28  24  84 S9        29.96F WCI  19
WAUKEGAN       CLOUDY    27  22  81 S8        29.90F WCI  19
DUPAGE AIRPORT CLOUDY    26  23  88 S10       29.91F FOG     WCI  16
KANKAKEE*      CLOUDY    28  22  79 S8        29.96F WCI  20
WHEELING       CLOUDY    29  22  75 S10       29.94F WCI  20
MORRIS*        CLOUDY    28  23  83 SE7       29.92F WCI  20
ROMEOVILLE*    CLOUDY    27  23  84 S10       29.93F WCI  17
NORTHERLY ISL    N/A     29  20  69 S10         N/A  WCI  20
$$

LMZ740>746-111500-
SOUTHERN LAKE MICHIGAN

STATION/POSITION SKY/WX   TEMP    WIND        PRES    VSBY  WAVE
                          AIR SEA DIR/SP/G                  HT/PER
                          (F)     (DEG/KT/KT) (MB)    (MI)  (FT/S)
HARRISON CRIB              30     200/ 17/ 19   N/A
BURNHAM HARBOR             29     190/  8/ 11   N/A
CALUMET HARBOR             28     170/  9/ 13 1013.8F
BURNS HARBOR               29     190/ 11/ 15 1015.6S
MICHIGAN CITY              28     180/ 12/ 13   N/A
$$

ILZ025>027-034>036-040-047-049-050-058-095>099-111500-
WEST-CENTRAL ILLINOIS

CITY           SKY/WX    TMP DP  RH WIND       PRES   REMARKS
QUINCY         PTCLDY    37  25  61 S10       29.84F WCI  30
GALESBURG*     PTCLDY    30  27  86 SE8       29.85F WCI  23
MACOMB*        CLOUDY    32  27  80 S6        29.88F WCI  26
JACKSONVILLE*  CLOUDY    34  25  69 S7        29.91F WCI  28
PITTSFIELD*    CLOUDY    34  27  75 SE8       29.89F WCI  27
$$

ILZ028>032-037-038-041>044-048-051>054-059>061-111500-
CENTRAL ILLINOIS

CITY           SKY/WX    TMP DP  RH WIND       PRES   REMARKS
PONTIAC        CLOUDY    31  27  86 S8        29.92F WCI  23
BLOOMINGTON    CLOUDY    29  25  85 S15       29.92F WCI  18
PEORIA         CLOUDY    31  25  78 S13       29.90F WCI  21
LACON*         CLOUDY    32  25  76 S7        29.88F WCI  25
LINCOLN*       PTCLDY    32  27  82 S12       29.93F WCI  23
SPRINGFIELD    PTCLDY    36  26  67 S13       29.94F WCI  27
TAYLORVILLE    CLOUDY    34  26  72 S14       29.95F WCI  25
$$

ILZ033-039-045-046-055>057-062-063-111500-
EAST-CENTRAL ILLINOIS

CITY           SKY/WX    TMP DP  RH WIND       PRES   REMARKS
CHAMPAIGN      PTCLDY    29  24  82 S12       29.97F WCI  19
DANVILLE*      PTCLDY    28  22  79 S8        29.97F WCI  20
RANTOUL*       PTCLDY    30  26  83 S10       29.97F WCI  21
MATTOON        CLOUDY    31  26  82 S9        29.98F WCI  23
PARIS*         CLOUDY    30  25  84 S8        30.01F WCI  22
$$

ILZ079-100>102-111500-
SOUTHWEST ILLINOIS

CITY           SKY/WX    TMP DP  RH WIND       PRES   REMARKS
ALTON          MOCLDY    32  28  86 S12       29.97F WCI  23
BELLEVILLE     CLOUDY    33  27  79 S7        29.99F WCI  27
CAHOKIA*       PTCLDY    34  25  69 S5        29.98F WCI  30
$$

ILZ064>066-069>071-074>076-080>082-084>086-088>090-092>094-111500-
SOUTH-CENTRAL ILLINOIS

CITY           SKY/WX    TMP DP  RH WIND       PRES   REMARKS
CARBONDALE     CLOUDY    28  27  96 SE3       30.06F
CAIRO*         CLEAR     29  29  97 CALM      30.10F
EFFINGHAM*     CLOUDY    31  27  85 SE5       30.03F WCI  26
MARION         PTCLDY    34  34 100 S6        30.08S WCI  29
MT. VERNON     CLOUDY    28  26  92 CALM      30.04F
CENTRALIA*     PTCLDY    36  30  77 S7        30.01F WCI  31
SALEM*         CLOUDY    37  27  67 S8        30.02F WCI  31
METROPOLIS*    CLEAR     29  27  94 CALM      30.10S
$$

ILZ067-068-072-073-078-083-087-091-111500-
SOUTHEAST ILLINOIS

CITY           SKY/WX    TMP DP  RH WIND       PRES   REMARKS
LAWRENCEVILLE  CLOUDY    31  26  82 S3        30.05F
FLORA*         CLOUDY    33  28  83 S7        30.04F WCI  27
FAIRFIELD*     CLOUDY    33  28  83 S3        30.04F
HARRISBURG*    CLOUDY    28  28  96 CALM      30.07F
ROBINSON*      CLOUDY    30  26  84 S7        30.05F WCI  24
CARMI*         CLOUDY    32  30  94 S5        30.06F WCI  27
$$

ABBREVIATIONS USED IN REMARKS
   TC - TEMPERATURE IN CELSIUS
  WCI - WIND CHILL INDEX
   HX - HEAT INDEX
  VSB - VISIBILITY
$$





USA.gov is the U.S. government's official web portal to all federal, state and local government web resources and services.